Content
SEND FEEDBACK

Daily
Averages
Monthly
Summary
Canada

MONTREAL, QUEBEC


Home > North America > Canada > Quebec
Elevation: 118 feet     Latitude: 45 28N     Longitude: 073 45W

WEATHER
 
SELECT A DAY
Number of Records: 198,844;   Date Range: 1/1/95 - 9/21/14
 
SHARE

PRINT THIS DATA

[ ← Previous Day ]
WEATHER ALMANAC - JANUARY 9, 2013
[ Next Day → ]
[ °C ]   °F
Weather ElementAverageHighLow
Temperature31.9 °F41 °F (5:48 pm)21.2 °F (8:00 am)
Dewpoint17.3 °F32 °F (6:00 pm) (7:00 pm)
Humidity79.1 %100 % (1:00 am)62 % (1:00 pm)
Wind Speed12 mph24.2 mph (7:00 pm)
Wind Gust34.5 mph (7:19 pm)
Weather ElementAverage
Visibility10.3 mi
Wind DirectionSSE (173.9 °)

Weather ElementTotal
Precipitation---
Heating Degree Days33.9 (Base 65)
Averaged from 36 records on January 9, 2013
WEATHER CONDITIONS BREAKOUT
WIND DIRECTION BREAKOUT
WEATHER BY HOUR - JANUARY 9, 2013
[ °C ]   °F
Local TimeTemperatureDewpointHumidityBarometerVisibilityWind DirectionWind SpeedGust SpeedPrecipitationEventsConditions
12:42 AM24.8 °F0.0 °F2.0 miSSW (210°)2.3 mphPartly Cloudy
1:00 AM23.0 °F23.0 °F100 %30.34 in1.5 miSouth (180°)2.3 mphPartly Cloudy
1:30 AM24.8 °F0.0 °F3.0 miSE (130°)3.5 mphScattered Clouds
2:00 AM24.8 °F23.0 °F93 %30.33 in3.0 miSE (140°)4.6 mphMostly Cloudy
3:00 AM24.8 °F23.0 °F93 %30.34 in5.0 miSE (140°)5.8 mphMostly Cloudy
4:00 AM24.8 °F21.2 °F86 %30.30 in6.0 miESE (120°)4.6 mphPartly Cloudy
5:00 AM23.0 °F19.4 °F86 %30.29 in8.0 miESE (110°)3.5 mphPartly Cloudy
6:00 AM24.8 °F21.2 °F86 %30.29 in8.0 miESE (120°)4.6 mphPartly Cloudy
7:00 AM24.8 °F21.2 °F86 %30.27 in8.0 miSE (130°)6.9 mphPartly Cloudy
7:00 AM24.0 °F21.0 °F82 %30.27 in7.0 miSE (140°)6.9 mphClear
8:00 AM21.2 °F19.4 °F93 %30.25 in8.0 miSE (140°)4.6 mphPartly Cloudy
9:00 AM24.8 °F21.2 °F86 %30.21 in8.0 miSE (130°)5.8 mphScattered Clouds
10:00 AM28.4 °F23.0 °F80 %30.17 in10.0 miESE (120°)5.8 mphMostly Cloudy
11:00 AM30.2 °F23.0 °F75 %30.05 in10.0 miESE (120°)12.7 mphOvercast
12:00 PM32.0 °F24.8 °F75 %30.06 in10.0 miSouth (180°)8.1 mphOvercast
1:00 PM33.0 °F25.0 °F62 %29.98 in10.0 miSE (140°)9.2 mphOvercast
1:00 PM32.0 °F24.8 °F75 %29.98 in10.0 miSE (140°)8.1 mphOvercast
2:00 PM33.8 °F24.8 °F70 %29.91 in12.0 miESE (110°)9.2 mphRainLight Rain Showers
2:20 PM33.8 °F0.0 °F15.0 miESE (120°)6.9 mphOvercast
3:00 PM33.8 °F26.6 °F75 %29.87 in12.0 miSE (140°)13.8 mphSnowLight Snow
3:33 PM33.8 °F0.0 °F10.0 miSSE (160°)11.5 mphRain-SnowLight Rain
3:49 PM33.8 °F0.0 °F8.0 miSSE (160°)11.5 mphRain-SnowLight Rain
4:00 PM33.8 °F28.4 °F81 %29.83 in15.0 miSSE (150°)12.7 mphRain-SnowLight Rain
4:33 PM33.8 °F0.0 °F8.0 miSSE (160°)12.7 mphRainLight Rain
5:00 PM33.8 °F30.2 °F87 %29.82 in10.0 miSSE (160°)12.7 mphRainLight Rain
5:48 PM41.0 °F0.0 °F15.0 miWSW (240°)20.7 mphOvercast
6:00 PM41.0 °F32.0 °F70 %29.82 in15.0 miSW (230°)21.9 mph32.2 mphOvercast
7:00 PM40.0 °F31.0 °F62 %29.85 in15.0 miWSW (240°)24.2 mphPartly Cloudy
7:19 PM41.0 °F0.0 °F15.0 miWSW (240°)24.2 mph34.5 mphRainLight Rain
7:47 PM41.0 °F0.0 °F15.0 miWest (260°)20.7 mph32.2 mphOvercast
8:00 PM39.2 °F30.2 °F70 %29.86 in15.0 miWSW (240°)19.6 mph27.6 mphOvercast
9:00 PM39.2 °F28.4 °F65 %29.89 in15.0 miWSW (250°)23.0 mph29.9 mphOvercast
10:00 PM39.2 °F28.4 °F65 %29.91 in15.0 miWSW (250°)24.2 mph31.1 mphOvercast
10:52 PM37.4 °F0.0 °F15.0 miWSW (250°)21.9 mph28.8 mphRainLight Rain Showers
11:00 PM37.4 °F30.2 °F75 %29.94 in15.0 miWSW (250°)19.6 mph28.8 mphRainLight Rain Showers
11:28 PM37.4 °F0.0 °F15.0 miWest (260°)21.9 mph28.8 mphMostly Cloudy
Hourly data recorded from CYUL, located miles away from Montreal, Quebec







STORIES FROM OUR PARTNERS